User: anonymous   Login
Location: Unspecified
(0.0000°N, 0.0000°E)
Time: 07:33:25
(UTC+02:00)
Language:

CZ-4B R/B - Orbit

View from above orbital plane
View from above orbital plane
View from above satellite
View from above satellite

Ground track
Ground track

The orbit data is extracted from the following two-line orbital elements,

1 33410U 08053C   17179.52349005 +.00000549 +00000-0 +44613-4 0  9990
2 33410 097.7288 150.0172 0121289 152.4854 208.2860 14.98287505472268
Epoch (UTC): 28 June 2017 12:33:49
Eccentricity: 0.0121289
inclination: 97.7288°
perigee height: 488 km
apogee height: 656 km
right ascension of ascending node: 150.0172°
argument of perigee: 152.4854°
revolutions per day: 14.98287505
mean anomaly at epoch: 208.2860°
orbit number at epoch: 47226

The dashed part of the orbit path shows where the satellite is in the earth's shadow,  

DLR